Content
SEND FEEDBACK

Daily
Averages
Monthly
Summary
United States of America

ACHANG BAY, GUAM


Home > North America > United States > Guam
Elevation: 30 feet     Latitude: 13 16N     Longitude: 144 45E

WEATHER
 
SELECT A DAY
Number of Records: 341,794;   Date Range: 1/1/95 - 7/23/14
 
SHARE

PRINT THIS DATA

[ ← Previous Day ]
WEATHER ALMANAC - JUNE 25, 2013
[ Next Day → ]
[ °C ]   °F
We're sorry. There is no daily almanac available for Achang Bay, Guam on June 25, 2013.
WEATHER BY HOUR - JUNE 25, 2013
[ °C ]   °F
Local TimeTemperatureDewpointHumidityBarometerVisibilityWind DirectionWind SpeedGust SpeedPrecipitationEventsConditions
12:31 AM78.8 °F77.0 °F94 %29.90 in10.0 miENE (70°)11.5 mphPartly Cloudy
12:55 AM78.6 °F75.4 °F90 %29.90 in10.0 miEast (80°)10.4 mph0.00 inScattered Clouds
1:55 AM79.0 °F75.2 °F88 %29.88 in10.0 miEast (80°)11.5 mphOvercast
2:49 AM78.8 °F75.2 °F89 %29.88 in10.0 miEast (80°)9.2 mphMostly Cloudy
2:54 AM78.8 °F75.2 °F89 %29.87 in10.0 miEast (80°)8.1 mphScattered Clouds
2:55 AM79.3 °F75.9 °F89 %29.87 in10.0 miEast (80°)9.2 mphMostly Cloudy
2:57 AM78.8 °F75.2 °F89 %29.87 in10.0 miEast (80°)8.1 mphScattered Clouds
3:01 AM78.8 °F75.2 °F89 %29.87 in10.0 miEast (80°)10.4 mphMostly Cloudy
3:11 AM78.8 °F75.2 °F89 %29.87 in10.0 miEast (80°)10.4 mphScattered Clouds
3:55 AM79.2 °F75.2 °F88 %29.87 in10.0 miEast (80°)9.2 mphMostly Cloudy
3:59 AM78.8 °F75.2 °F89 %29.87 in10.0 miEast (80°)10.4 mphMostly Cloudy
4:06 AM78.8 °F75.2 °F89 %29.88 in3.0 miEast (90°)20.7 mph25.3 mphRainRain
4:07 AM78.8 °F75.2 °F89 %29.88 in2.0 miEast (90°)19.6 mph25.3 mphRainRain
4:08 AM78.8 °F75.2 °F89 %29.88 in1.5 miEast (90°)16.1 mph25.3 mphRainRain
4:10 AM77.0 °F73.4 °F89 %29.88 in1.2 miEast (90°)17.3 mph25.3 mphRainHeavy Rain
4:12 AM77.0 °F73.4 °F89 %29.88 in1.0 miEast (90°)19.6 mph25.3 mphRainHeavy Rain
4:14 AM77.0 °F73.4 °F89 %29.88 in0.8 miEast (90°)12.7 mph25.3 mphRainHeavy Rain
4:16 AM75.2 °F73.4 °F94 %29.88 in1.0 miEast (100°)9.2 mph24.2 mphRainHeavy Rain
4:17 AM75.2 °F73.4 °F94 %29.88 in1.0 miEast (100°)8.1 mph24.2 mphRainHeavy Rain
4:18 AM75.2 °F73.4 °F94 %29.88 in1.0 miESE (110°)8.1 mph23.0 mphRainHeavy Rain
4:19 AM75.2 °F71.6 °F89 %29.88 in1.2 miEast (100°)8.1 mph23.0 mphRainHeavy Rain
4:21 AM75.2 °F71.6 °F89 %29.88 in1.5 miEast (100°)6.9 mphRainHeavy Rain
4:23 AM75.2 °F71.6 °F89 %29.88 in2.0 miEast (100°)5.8 mphRainHeavy Rain
4:24 AM75.2 °F71.6 °F89 %29.88 in2.5 miEast (100°)5.8 mphRainLight Rain
4:25 AM75.2 °F71.6 °F89 %29.88 in3.0 miEast (100°)5.8 mphRainLight Rain
4:32 AM77.0 °F73.4 °F89 %29.88 in9.0 miEast (80°)5.8 mphRainLight Rain
4:36 AM77.0 °F75.2 °F94 %29.88 in10.0 miEast (80°)6.9 mphScattered Clouds
4:55 AM78.1 °F75.7 °F92 %29.87 in10.0 miENE (70°)6.9 mph0.35 inScattered Clouds
5:12 AM78.8 °F77.0 °F94 %29.87 in10.0 miENE (70°)8.1 mphMostly Cloudy
5:19 AM78.8 °F75.2 °F89 %29.88 in10.0 miNE (50°)10.4 mphMostly Cloudy
5:21 AM78.8 °F75.2 °F89 %29.88 in10.0 miNE (50°)10.4 mphMostly Cloudy
5:31 AM78.8 °F75.2 °F89 %29.87 in10.0 miENE (60°)8.1 mphMostly Cloudy
5:45 AM78.8 °F75.2 °F89 %29.87 in10.0 miENE (60°)10.4 mphMostly Cloudy
5:46 AM78.8 °F75.2 °F89 %29.87 in10.0 miENE (60°)10.4 mphMostly Cloudy
5:53 AM78.8 °F77.0 °F94 %29.88 in10.0 miENE (60°)12.7 mphMostly Cloudy
5:55 AM79.0 °F76.3 °F91 %29.88 in10.0 miENE (60°)12.7 mphMostly Cloudy
5:57 AM78.8 °F77.0 °F94 %29.87 in10.0 miENE (60°)11.5 mphMostly Cloudy
5:59 AM78.8 °F77.0 °F94 %29.88 in10.0 miENE (60°)11.5 mphMostly Cloudy
6:00 AM78.8 °F77.0 °F94 %29.87 in10.0 miENE (60°)11.5 mphScattered Clouds
6:52 AM80.6 °F77.0 °F89 %29.89 in10.0 miENE (70°)12.7 mphMostly Cloudy
6:55 AM80.4 °F76.5 °F88 %29.89 in10.0 miENE (70°)12.7 mphMostly Cloudy
6:58 AM80.6 °F77.0 °F89 %29.89 in10.0 miENE (70°)11.5 mphScattered Clouds
7:16 AM80.6 °F77.0 °F89 %29.89 in10.0 miENE (70°)12.7 mphMostly Cloudy
7:19 AM80.6 °F77.0 °F89 %29.89 in10.0 miENE (70°)11.5 mphScattered Clouds
7:55 AM82.2 °F76.5 °F83 %29.90 in10.0 miEast (80°)12.7 mphPartly Cloudy
8:23 AM82.4 °F77.0 °F84 %29.90 in10.0 miENE (70°)13.8 mphMostly Cloudy
8:25 AM82.4 °F77.0 °F84 %29.90 in10.0 miENE (70°)15.0 mphScattered Clouds
8:37 AM82.4 °F77.0 °F84 %29.90 in10.0 miENE (70°)13.8 mphMostly Cloudy
8:42 AM82.4 °F77.0 °F84 %29.90 in10.0 miEast (80°)11.5 mphScattered Clouds
8:55 AM82.2 °F77.2 °F85 %29.90 in10.0 miEast (80°)15.0 mphScattered Clouds
9:27 AM84.2 °F78.8 °F84 %29.90 in10.0 miEast (90°)12.7 mphMostly Cloudy
9:28 AM84.2 °F77.0 °F79 %29.90 in10.0 miEast (90°)12.7 mphScattered Clouds
9:29 AM84.2 °F77.0 °F79 %29.90 in10.0 miEast (90°)13.8 mphMostly Cloudy
9:33 AM84.2 °F77.0 °F79 %29.90 in10.0 miEast (90°)13.8 mphScattered Clouds
9:43 AM84.2 °F77.0 °F79 %29.90 in10.0 miEast (90°)13.8 mphMostly Cloudy
9:55 AM84.6 °F77.7 °F80 %29.90 in10.0 miEast (80°)13.8 mphMostly Cloudy
9:56 AM84.2 °F77.0 °F79 %29.90 in10.0 miEast (80°)12.7 mphMostly Cloudy
10:00 AM86.0 °F78.8 °F79 %29.90 in10.0 miEast (90°)11.5 mphMostly Cloudy
10:03 AM84.2 °F78.8 °F84 %29.90 in4.0 miEast (100°)15.0 mph20.7 mphRainLight Rain
10:13 AM82.4 °F78.8 °F89 %29.91 in6.0 miEast (90°)12.7 mphRainLight Rain
10:14 AM82.4 °F78.8 °F89 %29.91 in8.0 miEast (90°)12.7 mphRainLight Rain
10:15 AM82.4 °F78.8 °F89 %29.91 in9.0 miEast (90°)12.7 mphRainLight Rain
10:16 AM82.4 °F78.8 °F89 %29.91 in10.0 miEast (90°)13.8 mphScattered Clouds
10:55 AM84.4 °F77.9 °F81 %29.90 in10.0 miEast (90°)12.7 mph0.02 inScattered Clouds
11:06 AM84.2 °F77.0 °F79 %29.90 in10.0 miEast (90°)12.7 mphMostly Cloudy
11:21 AM84.2 °F77.0 °F79 %29.90 in10.0 miEast (90°)10.4 mphScattered Clouds
11:23 AM86.0 °F77.0 °F74 %29.90 in10.0 miEast (80°)11.5 mphMostly Cloudy
11:33 AM86.0 °F77.0 °F74 %29.90 in10.0 miEast (90°)13.8 mphScattered Clouds
11:55 AM85.6 °F77.4 °F76 %29.90 in10.0 miEast (90°)12.7 mphPartly Cloudy
12:21 PM86.0 °F77.0 °F74 %29.89 in10.0 miESE (110°)11.5 mphMostly Cloudy
12:24 PM86.0 °F77.0 °F74 %29.89 in10.0 miEast (80°)12.7 mphScattered Clouds
12:55 PM86.0 °F78.1 °F77 %29.89 in10.0 miEast (80°)11.5 mphPartly Cloudy
1:17 PM86.0 °F78.8 °F79 %29.88 in10.0 miEast (80°)11.5 mphMostly Cloudy
1:55 PM84.7 °F77.5 °F79 %29.87 in10.0 miEast (90°)12.7 mphMostly Cloudy
2:18 PM86.0 °F77.0 °F74 %29.86 in10.0 miEast (90°)11.5 mphScattered Clouds
2:55 PM86.2 °F77.9 °F76 %29.86 in10.0 miEast (80°)10.4 mphPartly Cloudy
3:48 PM84.2 °F77.0 °F79 %29.85 in10.0 miEast (90°)8.1 mphMostly Cloudy
3:55 PM83.7 °F77.2 °F81 %29.85 in10.0 miENE (60°)9.2 mphMostly Cloudy
4:26 PM82.4 °F77.0 °F84 %29.85 in10.0 miENE (70°)9.2 mphScattered Clouds
4:55 PM82.8 °F77.2 °F83 %29.85 in10.0 miENE (60°)9.2 mphScattered Clouds
5:55 PM82.8 °F76.6 °F82 %29.85 in10.0 miENE (70°)5.8 mphClear
6:55 PM80.8 °F76.8 °F88 %29.85 in10.0 miENE (60°)6.9 mphClear
7:55 PM80.4 °F76.6 °F88 %29.86 in10.0 miNE (50°)10.4 mphClear
8:55 PM81.1 °F77.5 °F89 %29.87 in10.0 miNE (50°)12.7 mphScattered Clouds
9:00 PM80.6 °F77.0 °F89 %29.87 in10.0 miNE (50°)13.8 mphMostly Cloudy
9:04 PM80.6 °F77.0 °F89 %29.87 in10.0 miENE (60°)12.7 mphScattered Clouds
9:05 PM80.6 °F77.0 °F89 %29.87 in10.0 miENE (60°)13.8 mphMostly Cloudy
9:13 PM80.6 °F77.0 °F89 %29.87 in10.0 miNE (50°)15.0 mphScattered Clouds
9:55 PM81.1 °F75.6 °F83 %29.87 in10.0 miNE (50°)15.0 mphScattered Clouds
10:04 PM80.6 °F77.0 °F89 %29.88 in10.0 miNE (50°)15.0 mphMostly Cloudy
10:08 PM80.6 °F77.0 °F89 %29.87 in10.0 miENE (60°)16.1 mphMostly Cloudy
10:10 PM80.6 °F77.0 °F89 %29.87 in10.0 miNE (50°)13.8 mphMostly Cloudy
10:26 PM80.6 °F77.0 °F89 %29.88 in10.0 miENE (60°)15.0 mphMostly Cloudy
10:29 PM80.6 °F77.0 °F89 %29.88 in10.0 miENE (60°)13.8 mphMostly Cloudy
10:33 PM80.6 °F77.0 °F89 %29.88 in10.0 miENE (70°)12.7 mphMostly Cloudy
10:35 PM80.6 °F77.0 °F89 %29.88 in10.0 miENE (70°)15.0 mphMostly Cloudy
10:37 PM80.6 °F77.0 °F89 %29.88 in10.0 miENE (60°)17.3 mph21.9 mphMostly Cloudy
10:38 PM80.6 °F77.0 °F89 %29.88 in10.0 miENE (60°)18.4 mph21.9 mphMostly Cloudy
10:40 PM80.6 °F77.0 °F89 %29.88 in10.0 miNE (50°)16.1 mph21.9 mphMostly Cloudy
10:55 PM80.1 °F76.5 °F89 %29.88 in10.0 miENE (60°)16.1 mphPartly Cloudy
11:17 PM80.6 °F77.0 °F89 %29.88 in9.0 miENE (60°)15.0 mphRainLight Rain
11:28 PM78.8 °F77.0 °F94 %29.87 in10.0 miENE (70°)15.0 mphScattered Clouds
11:55 PM79.3 °F76.5 °F91 %29.86 in10.0 miENE (70°)17.3 mph0.00 inPartly Cloudy
Hourly data recorded from PGUA, located miles away from Achang Bay, Guam







STORIES FROM OUR PARTNERS